Location: Guilderland
(42.7045°N, 73.9115°W)
Time: 15:20:23
(UTC+00:00)

Cosmos 1758 Rocket - Pass Details

Date: 24 January 2020
Orbit: 603 x 635 km, 82.5° (Epoch: 26 February)

Event Time Altitude Azimuth Distance (km) Brightness Sun altitude
Rises 23:02:33 0° 194° (SSW) 2,843 7.4 -11.9°
Reaches altitude 10° 23:04:46 10° 198° (SSW) 1,943 6.6 -12.3°
Maximum altitude 23:09:02 64° 279° (W) 673 4.0 -13.1°
Drops below altitude 10° 23:13:20 10° 2° (N) 1,960 6.0 -13.9°
Sets 23:15:35 0° 6° (N) 2,870 6.8 -14.3°
